sat.trackr.live / text

‹ back to catalog

STARLINK-5153

NORAD 54088 · 2022-136AP

PAYLOAD ACTIVE UNKNOWN

§ Identity

Operator
Country
US
Launch date
2022-10-20
Launch site
AFETR
Launch vehicle
Mass (kg)
RCS (m²)

Purposes: comms

External: N2YO · Heavens-Above · Gunter

§ Orbital elements

Epoch: 2026-05-25T00:07:40.099872Z

Period
95.44 min
Inclination
53.2148°
Eccentricity
0.0001568
Mean motion
15.08833667 rev/d
Perigee alt
538.7 km
Apogee alt
540.8 km
Semi-major
6,917.9 km
B*
-3.3614e-5
RAAN
351.6284°
Arg perigee
91.3731°
Mean anomaly
268.7441°
Rev number
19,850

§ Raw data

STARLINK-51531 54088U 22136AP  26145.00532523 -.00000823  00000+0 -33614-4 0  99922 54088  53.2148 351.6284 0001568  91.3731 268.7441 15.08833667198505

JSON: /api/v1/satellites/54088 · /tle

For live sub-satellite position, see the globe view (requires WebGL).

§ Visibility from observer

Set your observer location to see the next 7 days of passes ≥ 10°. The values pass through the URL so the page stays shareable.

No JS? Fill the form by hand. The geolocation button needs JavaScript.